Location: Ciula Mare
(45.6000°N, 22.8167°E)
Time: 10:00:03
(UTC+00:00)

Cosmos 1763 Rocket - Pass Details

Date: 03 February 2023
Orbit: 733 x 778 km, 74.0° (Epoch: 30 March)

Event Time Altitude Azimuth Distance (km) Brightness Sun altitude
Rises 16:37:11 0° 339° (NNW) 3,225 6.8 -10.8°
Reaches altitude 10° 16:39:35 10° 341° (NNW) 2,289 6.1 -11.2°
Maximum altitude 16:44:46 77° 67° (ENE) 771 3.4 -12.1°
Drops below altitude 10° 16:49:52 10° 154° (SSE) 2,245 5.8 -12.9°
Sets 16:52:11 0° 156° (SSE) 3,158 6.5 -13.3°
